WS Maaseik 1 Meer informatie WS Maaseik 1


WS Maaseik 2 Meer informatie WS Maaseik 2


Regen radar Meer informatie rain snow radar


Bezoek onze andere website:

Vorige versie
weerstation Maaseik


Bezoek ook eens deze sites:

Weerstation Geleen



Het weer levert geen direct gevaar op.    Er zijn geen waarschuwingen afgegeven.

15 daagse weersverwachting Mönchengladbach (DE)

  • Overzicht
  • Per uur
  • 15 dagen
  • Extra
  • Vergelijk
  • Kaarten
  • Dagkaart
  • Meer »
  • Info
  • Statistieken
  • Directe link
    Temp 6h Neerslag Wind  
 06:08     21:14    Daglengte: 15:06 Vandaag
20:00
20°
 
2
 06:09     21:12    Daglengte: 15:03 Morgen
02:00
16°
 
3
08:00
16°
3.2 mm
4
14:00
19°
5.4 mm
6
20:00
18°
1.6 mm
4
 06:11     21:10    Daglengte: 14:59 Zaterdag 07 Aug
02:00
16°
 
4
08:00
15°
1.9 mm
2
14:00
21°
5.4 mm
3
20:00
19°
11.1 mm
3
 06:12     21:08    Daglengte: 14:56 Zondag 08 Aug
02:00
16°
2.4 mm
5
08:00
15°
16.2 mm
7
Locatie info
Region: Nordrhein-Westfalen
Latitude: 51.1955°N
Longitude: 6.4427°E
57 masl
Postcode: 41061
Temp/Neerslag /Baro Onweer/Dauwpunt
    Temp Baro 1h Neerslag Dauwpunt Wind UV Bewolking  
 06:08     21:14    Daglengte: 15:06 Vandaag
15:00
22°
1008.1 hPa
46%
11.9°
2
Windvlaag: 3.2 m/s
43%
16:00
22°
1007.2 hPa
72%
10.7°
2
Windvlaag: 3.7 m/s
22%
17:00
22°
1007.0 hPa
80%
10.4°
3
Windvlaag: 3.9 m/s
51%
18:00
22°
1006.6 hPa
80%
10.2°
2
Windvlaag: 4.2 m/s
62%
19:00
21°
1006.1 hPa
73%
9.9°
2
Windvlaag: 4 m/s
56%
20:00
20°
1005.9 hPa
21%
9.7°
2
Windvlaag: 2.3 m/s
32%
21:00
19°
1005.9 hPa
56%
10.5°
2
Windvlaag: 2.8 m/s
2%
22:00
18°
1005.9 hPa
13%
10.8°
2
Windvlaag: 3.1 m/s
4%
23:00
17°
1005.7 hPa
13%
12.5°
2
Windvlaag: 4.4 m/s
7%
 06:09     21:12    Daglengte: 15:03 Morgen
00:00
17°
1005.1 hPa
13%
13.5°
2
Windvlaag: 5.1 m/s
11%
01:00
17°
1004.5 hPa
13%
13.5°
2
Windvlaag: 5.2 m/s
29%
02:00
16°
1004.2 hPa
20%
13.0°
3
Windvlaag: 5.7 m/s
79%
03:00
16°
1003.6 hPa
68%
12.1°
3
Windvlaag: 5.5 m/s
48%
04:00
16°
1003.0 hPa
18%
12.5°
3
Windvlaag: 5.7 m/s
84%
05:00
16°
1002.4 hPa 0.7 mm
82%
13.0°
4
Windvlaag: 5.8 m/s
86%
06:00
16°
1002.2 hPa 1.5 mm
82%
14.0°
4
Windvlaag: 5.3 m/s
62%
07:00
16°
1002.2 hPa
37%
14.4°
4
Windvlaag: 5.5 m/s
72%
08:00
16°
1002.4 hPa 1.0 mm
82%
14.7°
4
Windvlaag: 6.2 m/s
83%
09:00
17°
1002.5 hPa
82%
15.1°
4
Windvlaag: 6.6 m/s
69%
10:00
17°
1002.9 hPa 1.5 mm
82%
14.5°
5
Windvlaag: 7.1 m/s
48%
11:00
18°
1003.2 hPa
82%
14.7°
5
Windvlaag: 7 m/s
20%
12:00
19°
1003.3 hPa 1.5 mm
82%
15.0°
6
Windvlaag: 7.5 m/s
21%
13:00
20°
1003.5 hPa 1.1 mm
82%
15.0°
6
Windvlaag: 8 m/s
38%
14:00
19°
1003.6 hPa 1.3 mm
82%
15.0°
6
Windvlaag: 8.4 m/s
47%
15:00
19°
1003.8 hPa 1.6 mm
82%
14.7°
6
Windvlaag: 7.8 m/s
13%
16:00
20°
1003.8 hPa
79%
15.5°
7
Windvlaag: 8.6 m/s
10%
17:00
20°
1004.1 hPa
73%
15.3°
6
Windvlaag: 8.7 m/s
20%
18:00
19°
1004.3 hPa
31%
15.0°
6
Windvlaag: 7.3 m/s
10%
19:00
19°
1004.7 hPa
19%
15.3°
5
Windvlaag: 6.8 m/s
13%
20:00
18°
1004.9 hPa
17%
14.6°
4
Windvlaag: 6.1 m/s
13%
21:00
17°
1005.4 hPa
19%
13.6°
4
Windvlaag: 6.4 m/s
8%
22:00
17°
1005.7 hPa
14%
13.0°
3
Windvlaag: 6.3 m/s
14%
23:00
17°
1006.1 hPa
14%
12.6°
3
Windvlaag: 5.9 m/s
7%
 06:11     21:10    Daglengte: 14:59 Zaterdag 07 Aug
00:00
16°
1006.1 hPa
14%
12.1°
4
Windvlaag: 6.7 m/s
9%
01:00
16°
1006.0 hPa
14%
11.8°
3
Windvlaag: 6.8 m/s
55%
02:00
16°
1006.0 hPa
66%
11.7°
4
Windvlaag: 6.3 m/s
62%
03:00
16°
1005.7 hPa 1.9 mm
80%
12.2°
3
Windvlaag: 7.1 m/s
34%
04:00
15°
1005.4 hPa
27%
12.4°
2
Windvlaag: 5.2 m/s
21%
05:00
15°
1005.3 hPa
22%
12.7°
2
Windvlaag: 4.1 m/s
20%
06:00
15°
1005.0 hPa
14%
13.0°
2
Windvlaag: 3 m/s
37%
07:00
15°
1004.9 hPa
14%
13.2°
2
Windvlaag: 2.9 m/s
15%
08:00
15°
1004.8 hPa
14%
13.7°
2
Windvlaag: 3.8 m/s
14%
09:00
16°
1004.9 hPa
14%
14.6°
3
Windvlaag: 5.1 m/s
65%
10:00
17°
1004.6 hPa
15%
15.4°
3
Windvlaag: 6.6 m/s
26%
11:00
19°
1004.0 hPa 2.4 mm
34%
9.7°
4
Windvlaag: 7.8 m/s
75%
12:00
20°
1003.6 hPa 1.4 mm
100%
9.1°
3
Windvlaag: 7.7 m/s
84%
13:00
21°
1002.9 hPa
98%
9.3°
4
Windvlaag: 7.1 m/s
36%
14:00
21°
1002.5 hPa 1.6 mm
92%
8.7°
3
Windvlaag: 7.6 m/s
53%
15:00
20°
1002.1 hPa 2.8 mm
99%
14.0°
4
Windvlaag: 5.1 m/s
91%
16:00
21°
1002.0 hPa 2.8 mm
97%
11.9°
3
Windvlaag: 5.8 m/s
83%
17:00
21°
1001.8 hPa 2.3 mm
100%
11.1°
3
Windvlaag: 6.3 m/s
51%
18:00
20°
1001.7 hPa 1.6 mm
100%
9.7°
4
Windvlaag: 5.4 m/s
76% warningclass
19:00
20°
1001.7 hPa 1.5 mm
100%
9.4°
4
Windvlaag: 5.6 m/s
82%
20:00
19°
1001.6 hPa
92%
10.0°
3
Windvlaag: 5 m/s
68%
21:00
18°
1001.8 hPa
24%
10.2°
2
Windvlaag: 4.6 m/s
46%
22:00
17°
1002.3 hPa 2.4 mm
29%
10.2°
3
Windvlaag: 4.5 m/s
77%
23:00
17°
1002.5 hPa
86%
9.5°
3
Windvlaag: 7.4 m/s
15%
 06:12     21:08    Daglengte: 14:56 Zondag 08 Aug
00:00
16°
1002.8 hPa
85%
8.6°
4
Windvlaag: 7.9 m/s
12%
01:00
16°
1003.2 hPa
22%
9.9°
5
Windvlaag: 8.8 m/s
53%
02:00
16°
1003.4 hPa
22%
11.6°
5
Windvlaag: 7.7 m/s
55%
03:00
16°
1003.6 hPa
22%
11.7°
6
Windvlaag: 8.9 m/s
81%
04:00
15°
1003.6 hPa
88%
12.0°
5
Windvlaag: 8.2 m/s
98%
05:00
15°
1003.7 hPa
100%
11.5°
6
Windvlaag: 8.4 m/s
82%
06:00
15°
1003.9 hPa 2.5 mm
94%
12.2°
6
Windvlaag: 8.1 m/s
91%
07:00
15°
1004.4 hPa
96%
11.8°
6
Windvlaag: 8.4 m/s
83%
08:00
15°
1005.3 hPa
33%
13.0°
7
Windvlaag: 9.5 m/s
81%
09:00
16°
1006.2 hPa   -35.8°
7
Windvlaag: 0 m/s
63%
Temp/Neerslag /Baro Onweer/Dauwpunt
    Temp Baro Neerslag Dauwpunt Wind Bewolking  
 06:08     21:14    Daglengte: 15:06 Vandaag
17:00
22°
1007.0 hPa   10.4°
3
51%
20:00
20°
1005.9 hPa   9.7°
2
32%
23:00
17°
1005.7 hPa   12.5°
2
7%
 06:09     21:12    Daglengte: 15:03 Morgen
02:00
16°
1004.2 hPa   13.0°
3
79%
05:00
16°
1002.4 hPa 0.7 mm 13.0°
4
86%
08:00
16°
1002.4 hPa 2.4 mm 14.7°
4
83%
11:00
18°
1003.2 hPa 1.5 mm 14.7°
5
20%
14:00
19°
1003.6 hPa 3.9 mm 15.0°
6
47%
17:00
20°
1004.1 hPa 1.6 mm 15.3°
6
20%
20:00
18°
1004.9 hPa   14.6°
4
13%
23:00
17°
1006.1 hPa   12.6°
3
7%
 06:11     21:10    Daglengte: 14:59 Zaterdag 07 Aug
02:00
16°
1006.0 hPa   11.7°
4
62%
05:00
15°
1005.3 hPa 1.9 mm 12.7°
2
20%
08:00
15°
1004.8 hPa   13.7°
2
14%
11:00
19°
1004.0 hPa 2.4 mm 9.7°
4
75%
14:00
21°
1002.5 hPa 3.0 mm 8.7°
3
53%
17:00
21°
1001.8 hPa 7.9 mm 11.1°
3
51%
20:00
19°
1001.6 hPa 3.1 mm 10.0°
3
68%
23:00
17°
1002.5 hPa 2.4 mm 9.5°
3
15%
 06:12     21:08    Daglengte: 14:56 Zondag 08 Aug
02:00
16°
1003.4 hPa   11.6°
5
55%
05:00
15°
1003.7 hPa   11.5°
6
82%
08:00
15°
1005.3 hPa 8.8 mm 13.0°
7
81%
11:00
17°
1007.4 hPa   14.9°
7
36%
14:00
20°
1008.8 hPa   15.4°
7
0%
17:00
20°
1011.2 hPa 15.6 mm 12.3°
8
1%
20:00
18°
1013.1 hPa 15.8 mm 11.9°
7
1%
23:00
14°
1014.7 hPa 15.8 mm 11.5°
4
0%
 06:14     21:06    Daglengte: 14:52 Maandag 09 Aug
02:00
13°
1015.2 hPa 15.8 mm 10.3°
3
0%
05:00
14°
1014.7 hPa 15.8 mm 10.0°
4
1%
08:00
14°
1015.4 hPa 16.6 mm 11.9°
5
1%
11:00
14°
1016.8 hPa 17.5 mm 12.6°
6
1%
14:00
19°
1017.2 hPa 18.3 mm 13.8°
7
1%
17:00
20°
1017.9 hPa 19.3 mm 13.8°
7
1%
20:00
17°
1018.9 hPa 20.2 mm 13.8°
5
1%
23:00
14°
1019.9 hPa 20.8 mm 13.0°
4
1%
 06:15     21:04    Daglengte: 14:49 Dinsdag 10 Aug
02:00
13°
1020.6 hPa 21.0 mm 12.6°
4
1%
05:00
13°
1020.5 hPa 21.0 mm 12.1°
4
1%
08:00
14°
1021.4 hPa 21.0 mm 12.2°
4
1%
11:00
19°
1021.7 hPa 21.0 mm 13.5°
4
0%
14:00
22°
1021.1 hPa 21.2 mm 11.6°
4
0%
17:00
21°
1020.6 hPa 21.2 mm 13.0°
2
1%
20:00
20°
1020.2 hPa 21.2 mm 12.6°
1
1%
23:00
17°
1020.7 hPa 21.2 mm 11.1°
0
1%
 06:17     21:03    Daglengte: 14:46 Woensdag 11 Aug
02:00
16°
1020.4 hPa 21.2 mm 11.0°
1
1%
05:00
14°
1019.3 hPa 21.2 mm 11.9°
2
1%
08:00
16°
1019.3 hPa 21.2 mm 12.7°
1
1%
11:00
21°
1018.7 hPa 21.2 mm 13.7°
1
0%
14:00
24°
1017.4 hPa 21.2 mm 12.3°
2
0%
17:00
24°
1016.1 hPa 21.2 mm 12.5°
1
0%
20:00
23°
1015.5 hPa 21.2 mm 13.9°
1
0%
23:00
20°
1015.4 hPa 21.2 mm 11.8°
1
1%
 06:18     21:01    Daglengte: 14:43 Donderdag 12 Aug
02:00
20°
1014.4 hPa 21.2 mm 11.8°
2
1%
05:00
17°
1013.2 hPa 21.7 mm 13.6°
2
1%
08:00
16°
1013.5 hPa 24.8 mm 15.4°
3
1%
11:00
18°
1014.3 hPa 32.9 mm 16.2°
1
1%
14:00
20°
1015.3 hPa 67.3 mm 14.2°
5
1%
20:00
19°
1017.7 hPa 75.9 mm 14.9°
5
1%
 06:20     20:59    Daglengte: 14:39 Vrijdag 13 Aug
02:00
15°
1021.5 hPa 77.0 mm 14.0°
4
0%
08:00
14°
1023.5 hPa 77.0 mm 13.0°
3
0%
14:00
22°
1023.8 hPa 77.2 mm 11.5°
4
1%
20:00
20°
1023.3 hPa 77.2 mm 13.1°
2
1%
 06:22     20:57    Daglengte: 14:35 Zaterdag 14 Aug
02:00
14°
1024.3 hPa 77.2 mm 10.9°
1
0%
08:00
15°
1024.0 hPa 77.2 mm 11.6°
2
0%
14:00
23°
1022.4 hPa 77.2 mm 12.6°
2
0%
20:00
22°
1020.8 hPa 77.2 mm 14.0°
1
0%
 06:23     20:55    Daglengte: 14:32 Zondag 15 Aug
02:00
17°
1020.3 hPa 77.2 mm 12.7°
1
1%
08:00
17°
1018.9 hPa 77.2 mm 12.6°
2
0%
14:00
21°
1013.9 hPa 0.4 mm 12.4°
4
63%
20:00
19°
1013.5 hPa 0.8 mm 13.0°
3
60%
 06:25     20:53    Daglengte: 14:28 Maandag 16 Aug
02:00
16°
1014.1 hPa 0.6 mm 12.2°
2
55%
08:00
16°
1013.9 hPa 0.3 mm 12.1°
3
55%
14:00
22°
1014.3 hPa 0.5 mm 12.8°
4
57%
20:00
20°
1014.9 hPa 1.0 mm 13.1°
3
55%
 06:26     20:51    Daglengte: 14:25 Dinsdag 17 Aug
02:00
16°
1016.1 hPa 1.0 mm 11.9°
2
50%
08:00
16°
1016.4 hPa 0.2 mm 12.1°
3
49%
14:00
21°
1016.4 hPa 0.7 mm 12.9°
4
53%
20:00
20°
1016.1 hPa 0.8 mm 13.5°
3
56%
 06:28     20:49    Daglengte: 14:21 Woensdag 18 Aug
02:00
16°
1016.8 hPa 0.2 mm 12.6°
2
49%
08:00
16°
1016.4 hPa 0.6 mm 13.0°
3
58%
14:00
22°
1015.8 hPa 0.6 mm 13.8°
4
63%
20:00
20°
1015.4 hPa 1.3 mm 13.8°
3
58%
 06:29     20:47    Daglengte: 14:18 Donderdag 19 Aug
02:00
16°
1016.4 hPa 1.4 mm 12.8°
2
43%
08:00
16°
1015.9 hPa 2.0 mm 12.8°
2
60%
14:00
22°
1015.1 hPa 0.7 mm 13.4°
3
56%
20:00
20°
1014.8 hPa 0.8 mm 13.6°
2
56%
 06:31     20:45    Daglengte: 14:14 Vrijdag 20 Aug
02:00
16°
1015.6 hPa 0.3 mm 12.3°
2
43%
08:00
16°
1015.4 hPa 0.4 mm 12.3°
2
48%
14:00
21°
1014.9 hPa 0.4 mm 13.1°
3
58%
  CAPE Lifted Index Hail Supercell Tornado SRH 3km CL BTM PRES CL TOP PRES Swiss DWD icon SMHI TS
 06:08     21:14    Daglengte: 15:06 Vandaag
15:00 162 J/kg 0.0 K 0 % 0 % 0 % 0 m²/s² 0 0 0.96 3
16:00 150 J/kg 0.3 K 0 % 0 % 0 % 0 m²/s² 0 0 1.62 2
17:00 179 J/kg -0.1 K 0 % 0 % 0 % 0 m²/s² 0 0 1.28 61
18:00 155 J/kg 0.0 K 0 % 0 % 0 % 0 m²/s² 0 0 1.56 3
19:00 132 J/kg 0.3 K 0 % 0 % 0 % 0 m²/s² 0 0 2.34 3
20:00 95 J/kg 0.6 K 0 % 0 % 0 % 0 m²/s² 0 0 3.6 3
21:00 118 J/kg 0.4 K 0 % 0 % 0 % 0 m²/s² 0 0 3.25 0
22:00 127 J/kg 0.1 K 0 % 0 % 0 % 0 m²/s² 0 0 2.56 0
23:00 113 J/kg 0.1 K 0 % 0 % 0 % 0 m²/s² 0 0 2.23 1
 06:09     21:12    Daglengte: 15:03 Morgen
00:00 193 J/kg -0.4 K 0 % 0 % 0 % 0 m²/s² 0 0 1.58 2
01:00 110 J/kg -0.4 K 0 % 0 % 0 % 0 m²/s² 0 0 1.73 3
02:00 89 J/kg 0.5 K 0 % 0 % 0 % 0 m²/s² 0 0 2 3
03:00 0 J/kg 0.8 K 0 % 0 % 0 % 0 m²/s² 0 0 1.73 3
04:00 0 J/kg 0.4 K 0 % 0 % 0 % 0 m²/s² 0 0 1.15 3
05:00 0 J/kg 0.0 K 0 % 0 % 0 % 0 m²/s² 0 0 0.48 80
06:00 60 J/kg -1.7 K 0 % 0 % 0 % 0 m²/s² 0 0 -1.7 61
07:00 78 J/kg -1.1 K 0 % 0 % 0 % 0 m²/s² 0 0 0.04 3
08:00 219 J/kg -0.5 K 0 % 0 % 0 % 0 m²/s² 0 0 1.57 80
09:00 287 J/kg -0.5 K 0 % 0 % 0 % 0 m²/s² 0 0 1.3 3
10:00 126 J/kg 0.2 K 0 % 0 % 0 % 0 m²/s² 0 0 2.75 80
11:00 267 J/kg -0.4 K 0 % 0 % 0 % 0 m²/s² 0 0 1.67 80
12:00 254 J/kg -0.4 K 0 % 0 % 0 % 0 m²/s² 0 0 2 80
13:00 148 J/kg 0.4 K 0 % 0 % 0 % 0 m²/s² 0 0 2.47 3
14:00 138 J/kg 0.7 K 0 % 0 % 0 % 0 m²/s² 0 0 3.1 80
15:00 150 J/kg 0.5 K 0 % 0 % 0 % 0 m²/s² 0 0 3.35 80
16:00 217 J/kg -0.2 K 0 % 0 % 0 % 0 m²/s² 0 0 3.16 2
17:00 306 J/kg -0.9 K 0 % 0 % 0 % 0 m²/s² 0 0 0.9 2
18:00 402 J/kg -1.6 K 0 % 0 % 0 % 0 m²/s² 0 0 0.86 2
19:00 263 J/kg -0.9 K 0 % 0 % 0 % 0 m²/s² 0 0 1.2 1
20:00 395 J/kg -1.5 K 0 % 0 % 0 % 0 m²/s² 0 0 0.87 2
21:00 267 J/kg -0.4 K 0 % 0 % 0 % 0 m²/s² 0 0 1.91 1
22:00 214 J/kg 0.5 K 0 % 0 % 0 % 0 m²/s² 0 0 2.93 1
23:00 243 J/kg 0.8 K 0 % 0 % 0 % 0 m²/s² 0 0 3.86 1
 06:11     21:10    Daglengte: 14:59 Zaterdag 07 Aug
00:00 246 J/kg 1.3 K 0 % 0 % 0 % 0 m²/s² 0 0 4.27 2
01:00 117 J/kg 2.8 K 0 % 0 % 0 % 0 m²/s² 0 0 5.92 3
02:00 16 J/kg 3.9 K 0 % 0 % 0 % 0 m²/s² 0 0 6.12 3
03:00 8 J/kg 3.5 K 0 % 0 % 0 % 0 m²/s² 0 0 6.65 2
04:00 2 J/kg 2.9 K 0 % 0 % 0 % 0 m²/s² 0 0 5.48 1
05:00 0 J/kg 2.5 K 0 % 0 % 0 % 0 m²/s² 0 0 4.78 1
06:00 0 J/kg 2.6 K 0 % 0 % 0 % 0 m²/s² 0 0 4.61 2
07:00 2 J/kg 2.2 K 0 % 0 % 0 % 0 m²/s² 0 0 4.84 2
08:00 72 J/kg 1.9 K 0 % 0 % 0 % 0 m²/s² 0 0 4.72 2
09:00 135 J/kg 1.2 K 0 % 0 % 0 % 0 m²/s² 0 0 3.93 3
10:00 73 J/kg 1.8 K 0 % 0 % 0 % 0 m²/s² 0 0 4.29 3
11:00 36 J/kg 1.9 K 0 % 0 % 0 % 0 m²/s² 0 0 4.39 3
12:00 86 J/kg 1.1 K 0 % 0 % 0 % 0 m²/s² 0 0 3.26 3
13:00 115 J/kg 0.5 K 0 % 0 % 0 % 0 m²/s² 0 0 2.78 3
14:00 127 J/kg 0.1 K 0 % 0 % 0 % 0 m²/s² 0 0 1.75 80
15:00 235 J/kg -0.6 K 0 % 0 % 0 % 0 m²/s² 0 0 0.33 2
16:00 320 J/kg -1.1 K 0 % 0 % 0 % 0 m²/s² 0 0 0.07 2
17:00 361 J/kg -1.2 K 0 % 0 % 0 % 0 m²/s² 0 0 0.06 2
18:00 353 J/kg -1.4 K 0 % 0 % 0 % 0 m²/s² 0 0 0.19 95
19:00 401 J/kg -1.8 K 0 % 0 % 0 % 0 m²/s² 0 0 -0.03 80
20:00 485 J/kg -1.9 K 0 % 0 % 0 % 0 m²/s² 0 0 -0.13 3
21:00 489 J/kg -1.9 K 0 % 0 % 0 % 0 m²/s² 0 0 -0.01 2
22:00 496 J/kg -1.7 K 0 % 0 % 0 % 0 m²/s² 0 0 -0.2 3
23:00 484 J/kg -1.8 K 0 % 0 % 0 % 0 m²/s² 0 0 -0.87 2
 06:12     21:08    Daglengte: 14:56 Zondag 08 Aug
00:00 303 J/kg -1.2 K 0 % 0 % 0 % 0 m²/s² 0 0 -0.48 2
01:00 71 J/kg -1.0 K 0 % 0 % 0 % 0 m²/s² 0 0 -0.31 2
02:00 259 J/kg -2.0 K 0 % 0 % 0 % 0 m²/s² 0 0 -1.49 2
03:00 205 J/kg -1.0 K 0 % 0 % 0 % 0 m²/s² 0 0 -0.7 3
04:00 77 J/kg -0.2 K 0 % 0 % 0 % 0 m²/s² 0 0 0.31 3
05:00 10 J/kg 0.4 K 0 % 0 % 0 % 0 m²/s² 0 0 1 61
06:00 12 J/kg 0.6 K 0 % 0 % 0 % 0 m²/s² 0 0 1.02 61
07:00 0 J/kg -0.7 K 0 % 0 % 0 % 0 m²/s² 0 0 -0.28 61
08:00 76 J/kg -0.4 K 0 % 0 % 0 % 0 m²/s² 0 0 -0.19 3
09:00 0 J/kg 0.0 K 0 % 0 % 0 % 0 m²/s² 0 0 13.83 3
Temp Baro Wind Neerslag
  EWN Forecast EWN WRFDA DWD ICON FMI HIRLAM MET Norway GFS
 06:08     21:14    Daglengte: 15:06 Vandaag
17:00 21.7° 1007.0 hPa 2.7 m/s 0.0 mm 23.3° 1005.9 hPa 3.2 m/s 0.8 mm 20.0° 1007.3 hPa 3.7 m/s -1.6 mm 23.3° 1006.3 hPa 2.6 m/s 0.0 mm 22.8° 1006.4 hPa 2.7 m/s
20:00 20.3° 1005.9 hPa 2.0 m/s 0.0 mm 22.8° 1004.9 hPa 2.4 m/s 0.9 mm 19.7° 1006.1 hPa 2.0 m/s 0.0 mm 22.1° 1005.6 hPa 2.2 m/s 0.0 mm 20.1° 1005.6 hPa 3.3 m/s
23:00 17.4° 1005.7 hPa 2.1 m/s 0.0 mm 19.1° 1004.4 hPa 2.4 m/s 0.9 mm 16.9° 1006.1 hPa 2.0 m/s 0.0 mm 19.0° 1005.5 hPa 1.5 m/s 0.0 mm 16.1° 1005.3 hPa 2.7 m/s
 06:09     21:12    Daglengte: 15:03 Morgen
02:00 16.2° 1004.2 hPa 2.8 m/s 0.0 mm 17.4° 1003.2 hPa 3.4 m/s 0.9 mm 16.1° 1004.4 hPa 2.4 m/s 0.0 mm 17.1° 1003.9 hPa 2.6 m/s 0.0 mm 15.8° 1003.9 hPa 3.1 m/s
05:00 16.0° 1002.4 hPa 3.5 m/s 0.7 mm 16.5° 1001.5 hPa 3.1 m/s 1.5 mm 15.9° 1002.6 hPa 3.3 m/s 1.4 mm 16.6° 1001.9 hPa 3.5 m/s 0.0 mm 15.4° 1003.0 hPa 3.6 m/s
08:00 16.4° 1002.4 hPa 3.8 m/s 2.4 mm 17.6° 1001.3 hPa 4.9 m/s 9.9 mm 16.4° 1002.9 hPa 3.8 m/s 2.0 mm 16.6° 1001.5 hPa 3.4 m/s 0.0 mm 16.2° 1002.9 hPa 4.3 m/s
11:00 17.5° 1003.2 hPa 5.2 m/s 1.5 mm 20.0° 1002.0 hPa 5.5 m/s 12.7 mm 18.2° 1003.7 hPa 4.6 m/s 0.9 mm 17.2° 1002.2 hPa 5.2 m/s 0.0 mm 18.3° 1003.8 hPa 7.1 m/s
14:00 19.5° 1003.6 hPa 6.4 m/s 3.9 mm 22.0° 1002.5 hPa 7.1 m/s 12.8 mm 19.8° 1004.2 hPa 5.3 m/s 1.1 mm 18.2° 1002.6 hPa 6.7 m/s 0.0 mm 19.9° 1004.0 hPa 8.6 m/s
17:00 19.8° 1004.1 hPa 6.3 m/s 1.6 mm 22.0° 1002.1 hPa 6.8 m/s 12.8 mm 21.5° 1004.5 hPa 5.6 m/s 0.6 mm 18.2° 1003.3 hPa 6.2 m/s 0.0 mm 20.0° 1004.6 hPa 7.6 m/s
20:00 18.3° 1004.9 hPa 4.3 m/s 0.0 mm 19.9° 1003.0 hPa 4.4 m/s 16.8 mm 20.2° 1005.1 hPa 4.0 m/s 0.0 mm 17.1° 1004.7 hPa 4.2 m/s 0.0 mm 18.2° 1005.2 hPa 5.6 m/s
23:00 16.5° 1006.1 hPa 3.3 m/s 0.0 mm 17.1° 1004.6 hPa 2.6 m/s 18.2 mm 16.6° 1005.9 hPa 2.3 m/s 0.0 mm 16.8° 1006.2 hPa 3.5 m/s 0.0 mm 14.8° 1006.2 hPa 3.5 m/s
 06:11     21:10    Daglengte: 14:59 Zaterdag 07 Aug
02:00 16.0° 1006.0 hPa 3.5 m/s 0.0 mm 15.8° 1004.1 hPa 3.9 m/s 18.2 mm 16.1° 1005.7 hPa 1.7 m/s 0.0 mm 16.6° 1006.3 hPa 3.8 m/s 0.0 mm 13.8° 1006.4 hPa 2.9 m/s
05:00 14.8° 1005.3 hPa 1.8 m/s 1.9 mm 15.2° 1003.8 hPa 3.1 m/s 18.2 mm 14.5° 1005.1 hPa 1.8 m/s 0.2 mm 14.7° 1005.8 hPa 1.7 m/s 0.0 mm 13.5° 1005.9 hPa 2.0 m/s
08:00 15.4° 1004.8 hPa 2.3 m/s 0.0 mm 15.8° 1003.7 hPa 2.7 m/s 18.2 mm 15.7° 1004.8 hPa 2.4 m/s 0.0 mm 15.4° 1005.9 hPa 1.5 m/s 0.0 mm 15.1° 1005.4 hPa 2.4 m/s
11:00 19.2° 1004.0 hPa 3.7 m/s 2.4 mm 19.4° 1003.2 hPa 3.5 m/s 18.2 mm 19.3° 1004.2 hPa 3.1 m/s 0.0 mm 19.2° 1004.7 hPa 3.3 m/s
14:00 21.1° 1002.5 hPa 3.5 m/s 3.0 mm 22.1° 1001.6 hPa 3.5 m/s 18.2 mm 21.2° 1003.1 hPa 4.0 m/s 0.4 mm 18.7° 1003.9 hPa 5.1 m/s
17:00 21.3° 1001.8 hPa 3.4 m/s 7.9 mm 21.8° 1001.1 hPa 2.5 m/s 19.6 mm 21.9° 1001.9 hPa 3.7 m/s 0.2 mm 19.2° 1003.9 hPa 5.7 m/s
20:00 19.2° 1001.6 hPa 3.2 m/s 3.1 mm 21.1° 1000.5 hPa 3.1 m/s 19.8 mm 19.1° 1001.5 hPa 2.9 m/s 1.2 mm 17.9° 1003.5 hPa 4.7 m/s
23:00 17.0° 1002.5 hPa 3.1 m/s 2.4 mm 19.7° 1000.9 hPa 2.2 m/s 20.6 mm 16.8° 1002.5 hPa 2.5 m/s 0.1 mm 15.1° 1004.3 hPa 4.2 m/s
 06:12     21:08    Daglengte: 14:56 Zondag 08 Aug
02:00 15.9° 1003.4 hPa 5.1 m/s 0.0 mm 16.9° 1001.3 hPa 5.2 m/s 21.7 mm 15.9° 1003.6 hPa 3.9 m/s 0.1 mm 14.5° 1004.9 hPa 4.0 m/s
05:00 14.9° 1003.7 hPa 5.7 m/s 0.0 mm 14.7° 1001.8 hPa 5.1 m/s 21.9 mm 15.7° 1003.6 hPa 5.5 m/s 0.1 mm 13.8° 1005.4 hPa 5.0 m/s
08:00 14.8° 1005.3 hPa 6.7 m/s 8.8 mm 14.6° 1002.7 hPa 7.9 m/s 25.9 mm 15.8° 1005.2 hPa 6.5 m/s 0.2 mm 14.7° 1006.4 hPa 6.5 m/s
11:00 17.5° 1007.4 hPa 7.5 m/s 0.0 mm 17.9° 1007.3 hPa 7.4 m/s 0.0 mm 14.6° 1007.9 hPa 7.8 m/s 14.6 mm
14:00 19.9° 1008.8 hPa 7.4 m/s 0.0 mm 20.3° 1008.7 hPa 7.2 m/s 0.0 mm 17.4° 1009.7 hPa 8.3 m/s 14.8 mm
17:00 19.7° 1011.2 hPa 8.0 m/s 15.6 mm 19.7° 1011.2 hPa 8.0 m/s 15.6 mm
20:00 17.6° 1013.1 hPa 6.9 m/s 15.8 mm 17.6° 1013.1 hPa 6.9 m/s 15.8 mm
23:00 13.9° 1014.7 hPa 3.8 m/s 15.8 mm 13.9° 1014.7 hPa 3.8 m/s 15.8 mm
 06:14     21:06    Daglengte: 14:52 Maandag 09 Aug
02:00 13.3° 1015.2 hPa 3.2 m/s 15.8 mm 13.3° 1015.2 hPa 3.2 m/s 15.8 mm
05:00 14.3° 1014.7 hPa 3.6 m/s 15.8 mm 14.3° 1014.7 hPa 3.6 m/s 15.8 mm
08:00 14.1° 1015.4 hPa 4.9 m/s 16.6 mm 14.1° 1015.4 hPa 4.9 m/s 16.6 mm
11:00 14.4° 1016.8 hPa 6.4 m/s 17.5 mm 14.4° 1016.8 hPa 6.4 m/s 17.5 mm
14:00 18.7° 1017.2 hPa 6.5 m/s 18.3 mm 18.7° 1017.2 hPa 6.5 m/s 18.3 mm
17:00 19.7° 1017.9 hPa 6.7 m/s 19.3 mm 19.7° 1017.9 hPa 6.7 m/s 19.3 mm
20:00 17.3° 1018.9 hPa 4.7 m/s 20.2 mm 17.3° 1018.9 hPa 4.7 m/s 20.2 mm
23:00 14.1° 1019.9 hPa 3.6 m/s 20.8 mm 14.1° 1019.9 hPa 3.6 m/s 20.8 mm
 06:15     21:04    Daglengte: 14:49 Dinsdag 10 Aug
02:00 13.4° 1020.6 hPa 3.6 m/s 21.0 mm 13.4° 1020.6 hPa 3.6 m/s 21.0 mm
05:00 13.4° 1020.5 hPa 4.0 m/s 21.0 mm 13.4° 1020.5 hPa 4.0 m/s 21.0 mm
08:00 13.8° 1021.4 hPa 3.9 m/s 21.0 mm 13.8° 1021.4 hPa 3.9 m/s 21.0 mm
11:00 18.8° 1021.7 hPa 4.4 m/s 21.0 mm 18.8° 1021.7 hPa 4.4 m/s 21.0 mm
14:00 22.2° 1021.1 hPa 3.6 m/s 21.2 mm 22.2° 1021.1 hPa 3.6 m/s 21.2 mm
17:00 20.7° 1020.6 hPa 2.2 m/s 21.2 mm 20.7° 1020.6 hPa 2.2 m/s 21.2 mm
20:00 19.8° 1020.2 hPa 0.7 m/s 21.2 mm 19.8° 1020.2 hPa 0.7 m/s 21.2 mm
23:00 16.6° 1020.7 hPa 0.5 m/s 21.2 mm 16.6° 1020.7 hPa 0.5 m/s 21.2 mm
 06:17     21:03    Daglengte: 14:46 Woensdag 11 Aug
02:00 15.5° 1020.4 hPa 1.2 m/s 21.2 mm 15.5° 1020.4 hPa 1.2 m/s 21.2 mm
05:00 14.1° 1019.3 hPa 1.9 m/s 21.2 mm 14.1° 1019.3 hPa 1.9 m/s 21.2 mm
08:00 15.8° 1019.3 hPa 1.3 m/s 21.2 mm 15.8° 1019.3 hPa 1.3 m/s 21.2 mm
11:00 20.6° 1018.7 hPa 1.4 m/s 21.2 mm 20.6° 1018.7 hPa 1.4 m/s 21.2 mm
14:00 23.7° 1017.4 hPa 1.6 m/s 21.2 mm 23.7° 1017.4 hPa 1.6 m/s 21.2 mm
17:00 24.5° 1016.1 hPa 1.5 m/s 21.2 mm 24.5° 1016.1 hPa 1.5 m/s 21.2 mm
20:00 22.5° 1015.5 hPa 0.6 m/s 21.2 mm 22.5° 1015.5 hPa 0.6 m/s 21.2 mm
23:00 19.9° 1015.4 hPa 1.1 m/s 21.2 mm 19.9° 1015.4 hPa 1.1 m/s 21.2 mm
 06:18     21:01    Daglengte: 14:43 Donderdag 12 Aug
02:00 19.7° 1014.4 hPa 2.5 m/s 21.2 mm 19.7° 1014.4 hPa 2.5 m/s 21.2 mm
05:00 17.2° 1013.2 hPa 1.7 m/s 21.7 mm 17.2° 1013.2 hPa 1.7 m/s 21.7 mm
08:00 16.2° 1013.5 hPa 2.8 m/s 24.8 mm 16.2° 1013.5 hPa 2.8 m/s 24.8 mm
11:00 17.5° 1014.3 hPa 1.3 m/s 32.9 mm 17.5° 1014.3 hPa 1.3 m/s 32.9 mm
14:00 20.5° 1015.3 hPa 4.6 m/s 34.4 mm 20.5° 1015.3 hPa 4.6 m/s 34.4 mm
20:00 19.0° 1017.7 hPa 5.1 m/s 38.3 mm 19.0° 1017.7 hPa 5.1 m/s 38.3 mm
 06:20     20:59    Daglengte: 14:39 Vrijdag 13 Aug
02:00 14.5° 1021.5 hPa 3.7 m/s 38.5 mm 14.5° 1021.5 hPa 3.7 m/s 38.5 mm
08:00 14.4° 1023.5 hPa 3.2 m/s 38.5 mm 14.4° 1023.5 hPa 3.2 m/s 38.5 mm
14:00 22.1° 1023.8 hPa 4.3 m/s 38.6 mm 22.1° 1023.8 hPa 4.3 m/s 38.6 mm
20:00 19.8° 1023.3 hPa 2.0 m/s 38.6 mm 19.8° 1023.3 hPa 2.0 m/s 38.6 mm
 06:22     20:57    Daglengte: 14:35 Zaterdag 14 Aug
02:00 14.1° 1024.3 hPa 1.3 m/s 38.6 mm 14.1° 1024.3 hPa 1.3 m/s 38.6 mm
08:00 14.8° 1024.0 hPa 1.6 m/s 38.6 mm 14.8° 1024.0 hPa 1.6 m/s 38.6 mm
14:00 23.2° 1022.4 hPa 1.9 m/s 38.6 mm 23.2° 1022.4 hPa 1.9 m/s 38.6 mm
20:00 22.0° 1020.8 hPa 1.2 m/s 38.6 mm 22.0° 1020.8 hPa 1.2 m/s 38.6 mm
 06:23     20:55    Daglengte: 14:32 Zondag 15 Aug
02:00 17.3° 1020.3 hPa 1.0 m/s 38.6 mm 17.3° 1020.3 hPa 1.0 m/s 38.6 mm
08:00 17.0° 1018.9 hPa 1.9 m/s 38.6 mm 17.0° 1018.9 hPa 1.9 m/s 38.6 mm
14:00 20.8° 1013.9 hPa 3.5 m/s 0.4 mm
20:00 19.4° 1013.5 hPa 2.7 m/s 0.8 mm
 06:25     20:53    Daglengte: 14:28 Maandag 16 Aug
02:00 16.0° 1014.1 hPa 2.4 m/s 0.6 mm
08:00 15.7° 1013.9 hPa 2.7 m/s 0.3 mm
14:00 21.6° 1014.3 hPa 4.3 m/s 0.5 mm
20:00 19.7° 1014.9 hPa 3.0 m/s 1.0 mm
 06:26     20:51    Daglengte: 14:25 Dinsdag 17 Aug
02:00 15.7° 1016.1 hPa 2.3 m/s 1.0 mm
08:00 15.5° 1016.4 hPa 2.8 m/s 0.2 mm
14:00 21.4° 1016.4 hPa 3.6 m/s 0.7 mm
20:00 19.9° 1016.1 hPa 2.5 m/s 0.8 mm
 06:28     20:49    Daglengte: 14:21 Woensdag 18 Aug
02:00 16.4° 1016.8 hPa 2.1 m/s 0.2 mm
08:00 16.2° 1016.4 hPa 2.7 m/s 0.6 mm
14:00 21.8° 1015.8 hPa 3.7 m/s 0.6 mm
20:00 20.0° 1015.4 hPa 2.5 m/s 1.3 mm
 06:29     20:47    Daglengte: 14:18 Donderdag 19 Aug
02:00 16.2° 1016.4 hPa 2.2 m/s 1.4 mm
08:00 16.0° 1015.9 hPa 2.1 m/s 2.0 mm
14:00 21.9° 1015.1 hPa 2.6 m/s 0.7 mm
20:00 20.3° 1014.8 hPa 2.3 m/s 0.8 mm
 06:31     20:45    Daglengte: 14:14 Vrijdag 20 Aug
02:00 15.9° 1015.6 hPa 1.6 m/s 0.3 mm
08:00 15.5° 1015.4 hPa 1.9 m/s 0.4 mm
14:00 21.0° 1014.9 hPa 2.7 m/s 0.4 mm
FMI Hirlam - 7.5 km EWN WRFDA - 12 km DWD ICON - 7 km GFS - 25 km Basiskaart






























































Updatetijd (Europe/Brussels) Resolutie Lengte Stap
FMI Hirlam 14:00, 20:00, 02:00, 08:00 7.5 km 49h 1h
EWN WRFDA 04:15, 10:15, 16:15, 22:15 12 km 73h 1h
DWD ICON 11:45, 17:45, 23:45, 05:45 7 km 75h 1h
GFS 14:15, 20:15, 02:15, 08:15 25 km 237h 3h
30+ mm
25-30 mm
20-25 mm
15-20 mm
10-15 mm
6-10 mm
4-6 mm
2-4 mm
1-2 mm
0.5-1 mm
0.2-0.5 mm
0.1-0.2 mm
30+ mm
25-30 mm
20-25 mm
15-20 mm
10-15 mm
6-10 mm
4-6 mm
2-4 mm
1-2 mm
0.5-1 mm
0.2-0.5 mm
0.1-0.2 mm
Sneeuwval
Natte sneeuw
Hagel
Vorst
30+ mm
25-30 mm
20-25 mm
15-20 mm
10-15 mm
6-10 mm
4-6 mm
2-4 mm
1-2 mm
0.5-1 mm
0.2-0.5 mm
0.1-0.2 mm
Sneeuwval
Natte sneeuw
Hagel
Vorst
Onweer
50 mm
40 mm
30 mm
26 mm
22 mm
18 mm
14 mm
10 mm
9 mm
8 mm
7 mm
6 mm
5 mm
4.5 mm
4 mm
3.5 mm
3 mm
2.5 mm
2 mm
1.5 mm
1 mm
0.8 mm
0.6 mm
0.4 mm
0.2 mm
0.05 mm
35°
30°
25°
20°
15°
10°
-5°
-10°
-15°
-20°
-25°
-30°
-35°
33> m/s
29 m/s
25 m/s
21 m/s
17 m/s
14 m/s
11 m/s
8 m/s
5 m/s
3 m/s
0 m/s
2600 J/kg
2400 J/kg
2200 J/kg
2000 J/kg
1800 J/kg
1600 J/kg
1400 J/kg
1200 J/kg
1000 J/kg
800 J/kg
600 J/kg
400 J/kg
200 J/kg
70 dBZ
65 dBZ
60 dBZ
55 dBZ
50 dBZ
45 dBZ
40 dBZ
35 dBZ
30 dBZ
25 dBZ
20 dBZ
15 dBZ
10 dBZ
5 dBZ
-1 K
-2 K
-3 K
-4 K
-5 K
-6 K
-7 K
-8 K
-9 K
950 m²/s²
900 m²/s²
850 m²/s²
800 m²/s²
750 m²/s²
700 m²/s²
650 m²/s²
600 m²/s²
550 m²/s²
500 m²/s²
450 m²/s²
400 m²/s²
350 m²/s²
300 m²/s²
250 m²/s²
200 m²/s²
150 m²/s²
100 m²/s²
46 m/s
44 m/s
42 m/s
40 m/s
38 m/s
36 m/s
34 m/s
32 m/s
30 m/s
28 m/s
26 m/s
24 m/s
22 m/s
20 m/s
16 m/s
12 m/s
8 m/s
4 m/s
30 m/s
28 m/s
26 m/s
24 m/s
22 m/s
20 m/s
18 m/s
16 m/s
14 m/s
12 m/s
10 m/s
8 m/s
6 m/s
4 m/s
2 m/s
3.0
2.8
2.6
2.4
2.2
2.0
1.8
1.6
1.4
1.2
1.0
0.8
0.6
0.4
0.2
15
14
13
12
11
10
9
8
7
6
5
4
3
2
1
90%
80%
70%
60%
50%
40%
30%
20%
10%
42
40
38
36
34
32
30
28
26
24
22
20
18
16
14
12
90+ cm
80-90 cm
70-80 cm
60-70 cm
50-60 cm
40-50 cm
30-40 cm
20-30 cm
10-20 cm
1-10 cm
Sneeuwval
Natte sneeuw
Regen
>120 mm
115 mm
110 mm
105 mm
100 mm
95 mm
90 mm
85 mm
80 mm
75 mm
70 mm
65 mm
60 mm
55 mm
50 mm
45 mm
45 mm
40 mm
35 mm
30 mm
25 mm
20 mm
15 mm
10 mm
5 mm
0.1 mm
960 hPa
880 hPa
800 hPa
720 hPa